JAL68N RJGG-RJOM

Flight info

Callsign JAL68N
Flight time 0h 44m
Altitude 34000
Route HIKNE WAKIT PIONE Y28 BAMBO Y283 ITUKI
Aircraft A359/H-SDE2E3GHIJ3J4J5LM1ORWXY/LB1D1

Departure

Time 2026-04-23 09:04
Airport Chubu Centrair International Airport (RJGG)

Arrival

Time 2026-04-23 09:49
Airport Matsuyama Airport (RJOM)
Time Latitude Longitude Altitude Speed Heading
2026-04-23 08:45 34.85682 136.81355 35 ft 0 kts 78°
2026-04-23 08:53 34.85681 136.81350 35 ft 3 kts 79°
2026-04-23 08:53 34.85676 136.81317 35 ft 4 kts 79°
2026-04-23 08:53 34.85669 136.81287 35 ft 4 kts 51°
2026-04-23 08:53 34.85652 136.81275 33 ft 4 kts
2026-04-23 08:54 34.85626 136.81276 32 ft 4 kts 347°
2026-04-23 08:54 34.85600 136.81283 34 ft 4 kts 348°
2026-04-23 08:54 34.85573 136.81290 34 ft 4 kts 348°
2026-04-23 08:54 34.85558 136.81294 33 ft 0 kts 348°
2026-04-23 08:57 34.85582 136.81288 34 ft 8 kts 348°
2026-04-23 08:57 34.85613 136.81254 32 ft 5 kts 287°
2026-04-23 08:57 34.85612 136.81201 32 ft 8 kts 262°
2026-04-23 08:58 34.85603 136.81123 35 ft 11 kts 261°
2026-04-23 08:58 34.85589 136.81039 34 ft 6 kts 258°
2026-04-23 08:58 34.85587 136.81030 34 ft 3 kts 258°
2026-04-23 08:58 34.85581 136.80992 34 ft 6 kts 257°
2026-04-23 08:59 34.85558 136.80973 34 ft 4 kts 195°
2026-04-23 08:59 34.85519 136.80972 34 ft 11 kts 173°
2026-04-23 08:59 34.85397 136.81001 34 ft 21 kts 169°
2026-04-23 08:59 34.85259 136.81034 34 ft 18 kts 168°
2026-04-23 09:00 34.85128 136.81068 34 ft 21 kts 168°
2026-04-23 09:00 34.84977 136.81102 34 ft 23 kts 171°
2026-04-23 09:00 34.84839 136.81135 34 ft 16 kts 168°
2026-04-23 09:00 34.84719 136.81164 34 ft 19 kts 169°
2026-04-23 09:01 34.84577 136.81198 34 ft 20 kts 169°
2026-04-23 09:01 34.84472 136.81223 34 ft 16 kts 169°
2026-04-23 09:01 34.84376 136.81228 34 ft 11 kts 208°
2026-04-23 09:01 34.84347 136.81155 34 ft 11 kts 254°
2026-04-23 09:02 34.84329 136.81053 32 ft 10 kts 258°
2026-04-23 09:02 34.84315 136.80967 29 ft 13 kts 259°
2026-04-23 09:02 34.84333 136.80903 28 ft 5 kts 329°
2026-04-23 09:02 34.84366 136.80887 29 ft 5 kts 339°
2026-04-23 09:03 34.84376 136.80886 29 ft 0 kts 350°
2026-04-23 09:04 34.84391 136.80882 30 ft 16 kts 350°
2026-04-23 09:04 34.84841 136.80775 34 ft 115 kts 348°
2026-04-23 09:04 34.85914 136.80522 171 ft 189 kts 350°
2026-04-23 09:04 34.87303 136.80196 859 ft 222 kts 350°
2026-04-23 09:05 34.88880 136.79781 1543 ft 235 kts 346°
2026-04-23 09:05 34.90442 136.79114 2084 ft 247 kts 342°
2026-04-23 09:05 34.92089 136.78349 2601 ft 258 kts 343°
2026-04-23 09:05 34.93795 136.77595 3054 ft 266 kts 345°
2026-04-23 09:06 34.95558 136.76839 3704 ft 272 kts 344°
2026-04-23 09:06 34.97221 136.75583 4308 ft 286 kts 316°
2026-04-23 09:06 34.98174 136.73477 4970 ft 295 kts 284°
2026-04-23 09:06 34.98197 136.71002 5673 ft 292 kts 258°
2026-04-23 09:07 34.97816 136.68613 6540 ft 284 kts 255°
2026-04-23 09:07 34.97417 136.66261 7273 ft 283 kts 254°
2026-04-23 09:07 34.97113 136.63883 7951 ft 287 kts 263°
2026-04-23 09:07 34.97467 136.61438 8649 ft 297 kts 290°
2026-04-23 09:08 34.98530 136.59299 9350 ft 301 kts 302°
2026-04-23 09:08 34.99788 136.57239 9986 ft 304 kts 303°
2026-04-23 09:08 35.01079 136.55167 10420 ft 313 kts 302°
2026-04-23 09:08 35.02415 136.52997 10694 ft 327 kts 301°
2026-04-23 09:09 35.03803 136.50725 10958 ft 340 kts 301°
2026-04-23 09:09 35.05237 136.48366 11215 ft 352 kts 302°
2026-04-23 09:09 35.06717 136.45931 11453 ft 362 kts 302°
2026-04-23 09:09 35.08221 136.43448 11842 ft 364 kts 301°
2026-04-23 09:10 35.09738 136.40952 12294 ft 367 kts 302°
2026-04-23 09:10 35.12800 136.35902 13249 ft 371 kts 300°
2026-04-23 09:10 35.14329 136.33382 13796 ft 369 kts 300°
2026-04-23 09:11 35.15855 136.30855 14267 ft 370 kts 301°
2026-04-23 09:11 35.17381 136.28321 14683 ft 371 kts 300°
2026-04-23 09:11 35.18915 136.25770 15089 ft 373 kts 300°
2026-04-23 09:11 35.20419 136.23181 15495 ft 373 kts 297°
2026-04-23 09:12 35.21649 136.20418 15898 ft 368 kts 288°
2026-04-23 09:12 35.22461 136.17469 16315 ft 364 kts 278°
2026-04-23 09:12 35.22823 136.14427 16725 ft 360 kts 269°
2026-04-23 09:12 35.22745 136.11383 17108 ft 359 kts 261°
2026-04-23 09:13 35.22396 136.08358 17460 ft 361 kts 258°
2026-04-23 09:13 35.21935 136.05320 17770 ft 364 kts 256°
2026-04-23 09:13 35.21423 136.02286 18162 ft 365 kts 256°
2026-04-23 09:13 35.20896 135.99240 18507 ft 366 kts 256°
2026-04-23 09:14 35.20374 135.96190 18848 ft 368 kts 256°
2026-04-23 09:14 35.19858 135.93115 19153 ft 370 kts 256°
2026-04-23 09:14 35.19351 135.90030 19506 ft 370 kts 257°
2026-04-23 09:14 35.18850 135.86941 19840 ft 371 kts 257°
2026-04-23 09:15 35.18350 135.83838 20164 ft 373 kts 257°
2026-04-23 09:15 35.17849 135.80727 20487 ft 373 kts 257°
2026-04-23 09:15 35.17348 135.77608 20805 ft 374 kts 257°
2026-04-23 09:15 35.16846 135.74483 21141 ft 375 kts 257°
2026-04-23 09:16 35.16340 135.71353 21470 ft 376 kts 257°
2026-04-23 09:16 35.15829 135.68214 21779 ft 378 kts 257°
2026-04-23 09:16 35.15316 135.65060 22102 ft 379 kts 257°
2026-04-23 09:16 35.14802 135.61902 22424 ft 380 kts 257°
2026-04-23 09:17 35.14283 135.58735 22731 ft 380 kts 257°
2026-04-23 09:17 35.13763 135.55561 22988 ft 382 kts 258°
2026-04-23 09:17 35.13239 135.52367 23252 ft 384 kts 258°
2026-04-23 09:17 35.12720 135.49203 23525 ft 386 kts 258°
2026-04-23 09:18 35.12192 135.45985 23742 ft 388 kts 257°
2026-04-23 09:18 35.11649 135.42697 23913 ft 391 kts 257°
2026-04-23 09:18 35.11116 135.39478 24162 ft 392 kts 257°
2026-04-23 09:18 35.10575 135.36211 24407 ft 393 kts 258°
2026-04-23 09:19 35.10034 135.32942 24676 ft 394 kts 258°
2026-04-23 09:19 35.09490 135.29654 24916 ft 396 kts 258°
2026-04-23 09:19 35.08943 135.26357 25171 ft 397 kts 258°
2026-04-23 09:19 35.08392 135.23044 25444 ft 398 kts 258°
2026-04-23 09:20 35.07840 135.19732 25693 ft 399 kts 258°
2026-04-23 09:20 35.07284 135.16400 25954 ft 400 kts 258°
2026-04-23 09:20 35.06727 135.13062 26216 ft 401 kts 257°
2026-04-23 09:20 35.06167 135.09722 26479 ft 403 kts 257°
2026-04-23 09:21 35.05604 135.06369 26737 ft 404 kts 257°
2026-04-23 09:21 35.05037 135.03002 26965 ft 406 kts 257°
2026-04-23 09:21 35.04467 134.99619 27257 ft 408 kts 258°
2026-04-23 09:21 35.03895 134.96234 27633 ft 407 kts 257°
2026-04-23 09:22 35.03157 134.92898 27937 ft 408 kts 251°
2026-04-23 09:22 35.02108 134.89675 28213 ft 410 kts 247°
2026-04-23 09:22 35.00939 134.86490 28528 ft 411 kts 246°
2026-04-23 09:22 34.99719 134.83334 28847 ft 413 kts 245°
2026-04-23 09:23 34.98465 134.80171 29092 ft 415 kts 245°
2026-04-23 09:23 34.97213 134.77032 29314 ft 419 kts 245°
2026-04-23 09:23 34.95936 134.73827 29618 ft 421 kts 245°
2026-04-23 09:23 34.94662 134.70620 29913 ft 422 kts 245°
2026-04-23 09:24 34.93370 134.67356 29930 ft 434 kts 245°
2026-04-23 09:24 34.92039 134.63987 29861 ft 446 kts 245°
2026-04-23 09:24 34.90684 134.60558 29809 ft 449 kts 245°
2026-04-23 09:25 34.88028 134.53850 29766 ft 434 kts 245°
2026-04-23 09:25 34.85408 134.47234 29769 ft 433 kts 245°
2026-04-23 09:26 34.82789 134.40643 29784 ft 432 kts 245°
2026-04-23 09:26 34.80175 134.34070 29775 ft 431 kts 245°
2026-04-23 09:27 34.77556 134.27500 29775 ft 431 kts 245°
2026-04-23 09:27 34.74927 134.20935 29787 ft 431 kts 245°
2026-04-23 09:28 34.72307 134.14403 29782 ft 430 kts 245°
2026-04-23 09:28 34.69692 134.07878 29779 ft 430 kts 245°
2026-04-23 09:29 34.67135 134.01304 29781 ft 429 kts 249°
2026-04-23 09:29 34.64976 133.94569 29760 ft 427 kts 250°
2026-04-23 09:30 34.62890 133.87792 29612 ft 430 kts 250°
2026-04-23 09:30 34.61857 133.84420 29064 ft 423 kts 250°
2026-04-23 09:30 34.60830 133.81074 28267 ft 422 kts 250°
2026-04-23 09:30 34.60151 133.78871 27802 ft 420 kts 250°
2026-04-23 09:31 34.59129 133.75562 27114 ft 417 kts 250°
2026-04-23 09:31 34.58114 133.72286 26465 ft 413 kts 250°
2026-04-23 09:31 34.57108 133.69042 25782 ft 410 kts 250°
2026-04-23 09:31 34.56103 133.65812 25131 ft 407 kts 250°
2026-04-23 09:32 34.55107 133.62610 24483 ft 405 kts 250°
2026-04-23 09:32 34.54107 133.59423 23827 ft 403 kts 250°
2026-04-23 09:32 34.53084 133.56267 23138 ft 402 kts 249°
2026-04-23 09:32 34.52052 133.53138 22426 ft 399 kts 249°
2026-04-23 09:33 34.51019 133.50031 21765 ft 395 kts 249°
2026-04-23 09:33 34.49995 133.46952 21098 ft 392 kts 249°
2026-04-23 09:33 34.48985 133.43911 20441 ft 389 kts 249°
2026-04-23 09:33 34.47980 133.40880 19791 ft 387 kts 249°
2026-04-23 09:34 34.46983 133.37863 19123 ft 385 kts 249°
2026-04-23 09:34 34.46001 133.34850 18458 ft 384 kts 249°
2026-04-23 09:34 34.45054 133.31830 17737 ft 383 kts 250°
2026-04-23 09:34 34.44124 133.28811 17016 ft 381 kts 250°
2026-04-23 09:35 34.43204 133.25815 16322 ft 379 kts 250°
2026-04-23 09:35 34.42282 133.22835 15632 ft 377 kts 250°
2026-04-23 09:35 34.41360 133.19873 14925 ft 375 kts 251°
2026-04-23 09:35 34.40440 133.16920 14233 ft 374 kts 251°
2026-04-23 09:36 34.39518 133.13979 13526 ft 373 kts 251°
2026-04-23 09:36 34.38601 133.11079 12759 ft 374 kts 251°
2026-04-23 09:36 34.37671 133.08159 12044 ft 371 kts 250°
2026-04-23 09:36 34.36738 133.05247 11319 ft 370 kts 250°
2026-04-23 09:37 34.35819 133.02386 11074 ft 357 kts 250°
2026-04-23 09:37 34.34936 132.99649 10939 ft 341 kts 250°
2026-04-23 09:37 34.34094 132.97036 10810 ft 326 kts 251°
2026-04-23 09:37 34.33292 132.94541 10683 ft 311 kts 250°
2026-04-23 09:38 34.32520 132.92150 10556 ft 298 kts 249°
2026-04-23 09:38 34.31519 132.90011 10426 ft 289 kts 235°
2026-04-23 09:38 34.30067 132.88375 10304 ft 288 kts 216°
2026-04-23 09:38 34.28277 132.87280 10132 ft 287 kts 206°
2026-04-23 09:39 34.26405 132.86474 9853 ft 286 kts 200°
2026-04-23 09:39 34.24466 132.85817 9456 ft 292 kts 197°
2026-04-23 09:39 34.22494 132.85225 9052 ft 292 kts 195°
2026-04-23 09:39 34.20519 132.84649 8648 ft 292 kts 195°
2026-04-23 09:40 34.18548 132.84064 8274 ft 292 kts 195°
2026-04-23 09:40 34.16581 132.83461 7901 ft 292 kts 196°
2026-04-23 09:40 34.14619 132.82828 7526 ft 292 kts 196°
2026-04-23 09:40 34.12661 132.82179 7137 ft 292 kts 195°
2026-04-23 09:41 34.10704 132.81522 6745 ft 292 kts 195°
2026-04-23 09:41 34.08745 132.80874 6359 ft 292 kts 192°
2026-04-23 09:41 34.06734 132.80678 6058 ft 289 kts 173°
2026-04-23 09:41 34.04743 132.81024 5984 ft 288 kts 167°
2026-04-23 09:42 34.02813 132.81484 5976 ft 275 kts 165°
2026-04-23 09:42 34.00987 132.81911 5958 ft 261 kts 170°
2026-04-23 09:42 33.99222 132.82083 5830 ft 249 kts 174°
2026-04-23 09:42 33.97522 132.82149 5568 ft 241 kts 176°
2026-04-23 09:43 33.95855 132.82193 5239 ft 236 kts 176°
2026-04-23 09:43 33.94243 132.82234 4912 ft 228 kts 175°
2026-04-23 09:43 33.92653 132.82279 4515 ft 228 kts 174°
2026-04-23 09:43 33.91070 132.82330 4153 ft 228 kts 174°
2026-04-23 09:44 33.89490 132.82390 3849 ft 227 kts 173°
2026-04-23 09:44 33.87930 132.82447 3548 ft 220 kts 173°
2026-04-23 09:44 33.86436 132.82489 3261 ft 210 kts 173°
2026-04-23 09:44 33.85018 132.82534 2970 ft 198 kts 173°
2026-04-23 09:45 33.83687 132.82578 2753 ft 186 kts 171°
2026-04-23 09:45 33.82417 132.82611 2507 ft 181 kts 174°
2026-04-23 09:45 33.81175 132.82382 2264 ft 181 kts 195°
2026-04-23 09:45 33.80101 132.81671 2014 ft 178 kts 218°
2026-04-23 09:46 33.79326 132.80557 1791 ft 171 kts 240°
2026-04-23 09:46 33.78935 132.79241 1565 ft 165 kts 261°
2026-04-23 09:46 33.78887 132.77891 1361 ft 159 kts 275°
2026-04-23 09:46 33.78957 132.76588 1148 ft 154 kts 277°
2026-04-23 09:47 33.79155 132.75361 940 ft 145 kts 289°
2026-04-23 09:47 33.79599 132.74333 786 ft 135 kts 307°
2026-04-23 09:47 33.80197 132.73485 622 ft 132 kts 313°
2026-04-23 09:47 33.80797 132.72659 399 ft 131 kts 313°
2026-04-23 09:48 33.81383 132.71811 260 ft 132 kts 314°
2026-04-23 09:48 33.81986 132.70980 54 ft 131 kts 316°
2026-04-23 09:48 33.82538 132.70224 23 ft 101 kts 312°
2026-04-23 09:48 33.82901 132.69715 26 ft 59 kts 311°
2026-04-23 09:49 33.83088 132.69454 27 ft 32 kts 310°
2026-04-23 09:49 33.83171 132.69344 29 ft 15 kts 322°
2026-04-23 09:49 33.83229 132.69351 26 ft 8 kts 32°
2026-04-23 09:49 33.83277 132.69400 28 ft 10 kts 40°
2026-04-23 09:50 33.83282 132.69480 28 ft 12 kts 120°
2026-04-23 09:50 33.83217 132.69575 28 ft 18 kts 130°
2026-04-23 09:50 33.83135 132.69690 27 ft 20 kts 130°
2026-04-23 09:50 33.83034 132.69833 27 ft 22 kts 130°
2026-04-23 09:51 33.83013 132.69863 27 ft 3 kts 130°
2026-04-23 09:51 33.82981 132.69907 27 ft 10 kts 130°
2026-04-23 09:51 33.82920 132.69994 29 ft 16 kts 131°
2026-04-23 09:51 33.82855 132.70083 30 ft 16 kts 131°
2026-04-23 09:52 33.82807 132.70151 30 ft 8 kts 129°
2026-04-23 09:52 33.82812 132.70195 31 ft 5 kts 28°
2026-04-23 09:52 33.82857 132.70198 29 ft 8 kts 14°
2026-04-23 09:52 33.82905 132.70237 28 ft 7 kts 41°
2026-04-23 09:53 33.82918 132.70251 30 ft 0 kts 42°
2026-04-23 10:15 33.82907 132.70239 31 ft 4 kts 40°
2026-04-23 10:16 33.82886 132.70219 29 ft 4 kts 37°
2026-04-23 10:16 33.82865 132.70200 31 ft 4 kts 36°
2026-04-23 10:16 33.82844 132.70181 31 ft 4 kts 44°
2026-04-23 10:16 33.82830 132.70156 31 ft 4 kts 81°
2026-04-23 10:17 33.82832 132.70126 31 ft 4 kts 114°
2026-04-23 10:17 33.82845 132.70100 31 ft 2 kts 129°
2026-04-23 10:17 33.82845 132.70099 31 ft 0 kts 129°